Location: Asheville, NC
(35.6000°N, 82.5500°W)
Time: 06:31:42

Hubble Space Telescope - Pass Details

Date: 14 March 2018
Orbit: 537 x 541 km, 28.5° (Epoch: 16 March)

Event Time Altitude Azimuth Distance (km) Brightness Sun altitude
Rises 21:37:27 0° 256° (WSW) 2,675 5.3 -25.0°
Reaches altitude 10° 21:39:55 10° 245° (WSW) 1,783 4.0 -25.5°
Enters shadow 21:42:10 24° 218° (SW) 1,138 2.6 -25.9°
